Regional Weather Roundup
Issued by NWS New Orleans/Baton Rouge, LA

Home | Current Version | Previous Version | Text Only | Print | Product List | Glossary On
Versions: 1 2 3 4 5 6 7 8 9 10 11 12 13 14 15 16 17 18 19 20 21 22 23 24 25 26 27 28 29 30 31 32 33 34 35 36 37 38 39 40 41 42 43 44 45 46 47 48 49 50
000
ASUS44 KLIX 211012
RWRLIX
NEW ORLEANS REGIONAL WEATHER ROUNDUP
NATIONAL WEATHER SERVICE NEW ORLEANS LA
500 AM CDT TUE APR 21 2015

NOTE: "FAIR" INDICATES FEW OR NO CLOUDS BELOW 12,000 FEET WITH NO
      SIGNIFICANT WEATHER AND/OR OBSTRUCTIONS TO VISIBILITY.
      SKY/WX - SKY CONDITION AND SIGNIFICANT WEATHER.
      TMP - AIR TEMPERATURE.     DP    - DEWPOINT TEMPERATURE.
      RH  - RELATIVE HUMIDITY.   PRES  - PRESSURE.
      HI  - HEAT INDEX.          WCI   - WIND CHILL INDEX.

*  THESE STATIONS ARE NOT NWS OR FAA STATIONS AND ARE NOT UNDER
   NWS QUALITY CONTROL.

LAZ038-040-048-061>063-065>067-069-211100-
SOUTHEAST LOUISIANA

CITY           SKY/WX    TMP DP  RH WIND       PRES   REMARKS
N.O. AUDUBON     N/A     64  52  65 MISG        N/A
N.O. INTL ARPT CLOUDY    64  48  56 N8        29.98R
N.O. LAKEFRONT MOCLDY    70  49  47 NE15      29.99R
SLIDELL        PTCLDY    54  53  97 N3        29.98R
BATON ROUGE    MOCLDY    57  52  83 CALM      29.99R
BOOTHVILLE     MOCLDY    68  57  68 N7        29.97R
BELLE CHASSE   CLOUDY    60  51  72 NE5       29.98R
BOGALUSA*        N/A     53  49  86 CALM      30.01R
GALLIANO*      PTSUNNY   67  53  61 NE3       29.97S
NEW ROADS*       N/A     58  50  73 N5        30.00R
GONZALES*        N/A     58  55  87 CALM      29.98S
HAMMOND*       PTCLDY    54  50  87 CALM      30.00S
HOUMA*         CLOUDY    59  56  88 N5        29.97S
PORT FOURCHON* NOT AVBL

$$

MSZ070-080>082-211100-
SOUTHERN MISSISSIPPI

CITY           SKY/WX    TMP DP  RH WIND       PRES   REMARKS
MCCOMB         CLOUDY    54  49  83 N3        30.00R
GULFPORT       CLEAR     56  49  77 N5        29.98R
BILOXI         MOCLDY    57  52  83 NE2       29.98R
PASCAGOULA       N/A     53  52  96 CALM      29.98S

$$

COASTAL OBSERVATIONS
LAKE AND NEARSHORE STATIONS

STATION/POSITION TIME  TEMP    WIND        PRES    WAVE
                       AIR SEA DIR/SP/G            HT/PER
                 (UTC) (F)     (DEG/KT/KT) (MB)    (FT/S)
PASCAGOULA       0900   59      10/  6/  9 1014.4
WAVELAND YACHT   0900   63 71   10/ 10/ 13 1014.8
GRAND ISLE       0900   68 75   40/ 13/ 17 1014.1
SOUTHWEST PASS   0900   68 63   20/ 13/ 14 1014.3
NEW CANAL        0900   69      20/ 13/ 16 1015.0
SHELL BEACH      0900   68 74   20/ 13/ 16 1014.2

OFFSHORE STATIONS

STATION/POSITION TIME  TEMP    WIND        PRES    WAVE
                       AIR SEA DIR/SP/G            HT/PER
                 (UTC) (F)     (DEG/KT/KT) (MB)    (FT/S)
64 S DAUPHIN ISL 0950   70 73   20/ 17/ 19 1014.4    3/ 4

$$



USA.gov is the U.S. government's official web portal to all federal, state and local government web resources and services.